Regional Weather Roundup
Issued by NWS

Home | Current Version | Previous Version | Graphics & Text | Print | Product List | Glossary On
Versions: 1 2 3 4 5 6 7 8 9 10 11 12 13 14 15 16 17 18 19 20 21 22 23 24 25 26 27 28 29 30 31 32 33 34 35 36 37 38 39 40 41 42 43 44 45 46 47 48 49 50
000
ASUS43 KTOP 230159
RWRKS

WEATHER ROUNDUP FOR KANSAS
NATIONAL WEATHER SERVICE GOODLAND KS
900 PM CDT TUE APR 22 2014

NOTE:  "FAIR" INDICATES FEW OR NO CLOUDS BELOW 12,000 FEET WITH NO
SIGNIFICANT WEATHER AND/OR OBSTRUCTIONS TO VISIBILITY.

KSZ001>006-013>018-027>032-041>047-230300-
NORTHWEST KANSAS

CITY           SKY/WX    TMP DP  RH WIND       PRES   REMARKS
GOODLAND       MOCLDY    69  43  38 S23G29    29.75R
HAYS           CLOUDY   N/A N/A N/A SE20      29.85F
HILL CITY      MOCLDY    67  36  31 SE15      29.83R
RUSSELL        MOCLDY    65  33  30 SE17      29.86F
$$

KSZ061>065-074>080-084>089-230300-
SOUTHWEST KANSAS

CITY           SKY/WX    TMP DP  RH WIND       PRES   REMARKS
DODGE CITY     PTCLDY    67  37  33 SE20      29.86S
ELKHART          N/A     75  40  28 S16         N/A
GARDEN CITY    PTCLDY    71  42  35 SE23G32   29.79F
GREAT BEND     MOCLDY    66  30  26 SE18      29.88S
LIBERAL        PTCLDY    72  39  30 S21G28    29.84S
$$

KSZ066>073-081>083-090>101-230300-
SOUTHEAST KANSAS

CITY           SKY/WX    TMP DP  RH WIND       PRES   REMARKS
CHANUTE        CLEAR     60  35  39 E6        29.97S
COFFEYVILLE    CLEAR     62  35  36 E5        29.96S
HUTCHINSON     MOCLDY    64  33  31 SE9       29.93S
NEWTON         MOCLDY    61  28  29 SE7       29.99R
PARSONS        CLEAR     56  34  43 CALM      29.98S
WICHITA INTL   MOCLDY    65  32  29 SE9       29.94R
WICHITA JABRA  MOCLDY    61  33  35 SE6       29.95R
WINFIELD       MOCLDY    66  34  30 SE5       29.96R
$$

KSZ007>012-019>026-033>040-048>060-102>105-230300-
NORTHEAST KANSAS

CITY           SKY/WX    TMP DP  RH WIND       PRES   REMARKS
CONCORDIA      PTCLDY    63  30  28 SE14      29.91S
EMPORIA        PTCLDY    58  35  42 SE8       29.96S
LAWRENCE       CLEAR     57  36  45 E6        29.98S
MANHATTAN      PTCLDY    64  31  28 SE7       29.95R
OLATHE IND     CLEAR     60  32  34 SE6       29.99R
OLATHE EXE     CLEAR     60  31  33 E8        29.98S
SALINA         MOCLDY    65  31  28 SE12      29.93R
TOPEKA BILLARD CLEAR     63  33  32 E3        29.98R
TOPEKA FORBES  CLEAR     61  34  36 E5        29.98R
$$



USA.gov is the U.S. government's official web portal to all federal, state and local government web resources and services.